STARLINK-30041 (57613 NORAD) Tracking and Keplerian Element Data

This shows tracking and keplerian element data for the satellite.

Feedback or suggestion? Click here.




ElementValue
Catalog57613
NameSTARLINK-30041
Epoch Orbit2476
Epoch Day13.16016009
Epoch Year2024
RAAN35.1986
Inclination43.0029
Eccentricity7.31E-05
Argument of Perigee227.5555
Mean Anonmoly132.5225
Mean Motion15.02529995
Decay Rate0.00024163
L11 57613U 23119M 24013.16016009 .00024163 00000+0 17979-2 0 9991
L22 57613 43.0029 35.1986 0000731 227.5555 132.5225 15.02529995 24762



Live tracking and technical data element details for STARLINK-30041 (NORAD 57613). STARLINK-30041 can be tracked NOW for your location showing map with azimuth and elevation plus other details from your city location.







IsCatalogInMostPopularTable: catalog: 57613, numindb: 31
Update: records affected: 1



GetName: 57613 STARLINK-30041

Hit Count: updated at: Thu, 29 Feb 2024 11:59:23 GMT